EZY361 EDDK-EGCC

Flight info

Callsign EZY361
Flight time N/A
Altitude 38000
Route NVO2R NVO Y868 SOGRI L608 DENUT L610 LAM UN57 WELIN T420 ELVOS
Aircraft A320/M-SDE3FGHIRWY/LB1

Departure

Time 2026-04-24 14:05
Airport Cologne Bonn Airport (EDDK)

Arrival

Time N/A
Airport Manchester Airport (EGCC)
Time Latitude Longitude Altitude Speed Heading
2026-04-24 13:28 50.87532 7.12135 232 ft 0 kts 208°
2026-04-24 13:51 50.87542 7.12143 232 ft 4 kts 206°
2026-04-24 13:51 50.87567 7.12160 232 ft 4 kts 196°
2026-04-24 13:51 50.87593 7.12167 232 ft 4 kts 172°
2026-04-24 13:52 50.87611 7.12153 233 ft 2 kts 118°
2026-04-24 13:52 50.87614 7.12146 237 ft 0 kts 118°
2026-04-24 13:54 50.87600 7.12186 234 ft 8 kts 118°
2026-04-24 13:54 50.87576 7.12256 233 ft 7 kts 118°
2026-04-24 13:55 50.87556 7.12318 232 ft 7 kts 118°
2026-04-24 13:55 50.87543 7.12395 232 ft 11 kts 80°
2026-04-24 13:55 50.87603 7.12464 232 ft 10 kts 19°
2026-04-24 13:55 50.87668 7.12498 232 ft 9 kts 18°
2026-04-24 13:56 50.87724 7.12528 246 ft 8 kts 20°
2026-04-24 13:56 50.87764 7.12599 232 ft 9 kts 73°
2026-04-24 13:56 50.87766 7.12695 232 ft 10 kts 109°
2026-04-24 13:56 50.87699 7.12799 232 ft 16 kts 138°
2026-04-24 13:57 50.87618 7.12917 232 ft 15 kts 137°
2026-04-24 13:57 50.87544 7.13026 232 ft 14 kts 137°
2026-04-24 13:57 50.87474 7.13127 232 ft 14 kts 137°
2026-04-24 13:57 50.87393 7.13243 232 ft 16 kts 137°
2026-04-24 13:58 50.87312 7.13360 232 ft 17 kts 137°
2026-04-24 13:58 50.87231 7.13478 235 ft 14 kts 137°
2026-04-24 13:58 50.87155 7.13587 238 ft 17 kts 137°
2026-04-24 13:58 50.87056 7.13730 241 ft 20 kts 138°
2026-04-24 13:59 50.86964 7.13864 246 ft 15 kts 137°
2026-04-24 13:59 50.86901 7.13956 252 ft 10 kts 137°
2026-04-24 13:59 50.86837 7.14049 255 ft 16 kts 137°
2026-04-24 13:59 50.86756 7.14139 255 ft 11 kts 162°
2026-04-24 14:00 50.86700 7.14185 258 ft 8 kts 139°
2026-04-24 14:00 50.86639 7.14275 261 ft 16 kts 137°
2026-04-24 14:00 50.86560 7.14390 262 ft 15 kts 137°
2026-04-24 14:00 50.86492 7.14488 267 ft 15 kts 137°
2026-04-24 14:01 50.86389 7.14637 273 ft 24 kts 137°
2026-04-24 14:01 50.86270 7.14810 279 ft 21 kts 137°
2026-04-24 14:01 50.86176 7.14945 285 ft 16 kts 137°
2026-04-24 14:01 50.86102 7.15053 287 ft 13 kts 137°
2026-04-24 14:02 50.86036 7.15149 293 ft 17 kts 137°
2026-04-24 14:02 50.85918 7.15317 294 ft 25 kts 138°
2026-04-24 14:02 50.85798 7.15493 301 ft 22 kts 137°
2026-04-24 14:02 50.85697 7.15639 301 ft 18 kts 137°
2026-04-24 14:03 50.85613 7.15761 306 ft 16 kts 137°
2026-04-24 14:03 50.85525 7.15888 307 ft 16 kts 137°
2026-04-24 14:03 50.85489 7.15998 308 ft 11 kts 74°
2026-04-24 14:03 50.85533 7.16087 309 ft 10 kts 47°
2026-04-24 14:04 50.85579 7.16165 309 ft 12 kts 47°
2026-04-24 14:04 50.85633 7.16257 308 ft 11 kts 47°
2026-04-24 14:04 50.85689 7.16315 308 ft 9 kts 355°
2026-04-24 14:04 50.85725 7.16271 309 ft 6 kts 317°
2026-04-24 14:05 50.85861 7.16075 306 ft 62 kts 317°
2026-04-24 14:05 50.86349 7.15366 286 ft 126 kts 317°
2026-04-24 14:05 50.87099 7.14277 569 ft 150 kts 319°
2026-04-24 14:05 50.87873 7.13144 1371 ft 154 kts 317°
2026-04-24 14:06 50.88697 7.11930 1943 ft 174 kts 316°
2026-04-24 14:06 50.89640 7.10560 2390 ft 192 kts 319°
2026-04-24 14:06 50.90545 7.08954 3106 ft 201 kts 304°
2026-04-24 14:06 50.91040 7.06939 3812 ft 213 kts 282°
2026-04-24 14:07 50.91001 7.04548 4602 ft 225 kts 258°
2026-04-24 14:07 50.90512 7.02123 5228 ft 242 kts 255°
2026-04-24 14:07 50.89949 6.99462 5696 ft 267 kts 254°
2026-04-24 14:07 50.89339 6.96603 6361 ft 279 kts 254°
2026-04-24 14:08 50.88711 6.93678 7236 ft 283 kts 254°
2026-04-24 14:08 50.88076 6.90718 8138 ft 286 kts 253°
2026-04-24 14:08 50.87442 6.87757 9063 ft 289 kts 253°
2026-04-24 14:08 50.86792 6.84725 9938 ft 293 kts 253°
2026-04-24 14:09 50.86130 6.81636 10598 ft 305 kts 253°
2026-04-24 14:09 50.85423 6.78329 10890 ft 329 kts 252°
2026-04-24 14:09 50.84665 6.74777 11138 ft 353 kts 253°
2026-04-24 14:09 50.83854 6.70981 11341 ft 375 kts 253°
2026-04-24 14:10 50.83002 6.67021 11852 ft 384 kts 253°
2026-04-24 14:10 50.82387 6.63093 12510 ft 386 kts 264°
2026-04-24 14:10 50.82324 6.58854 13213 ft 388 kts 272°
2026-04-24 14:10 50.82372 6.54919 13864 ft 391 kts 272°
2026-04-24 14:11 50.82430 6.50600 14522 ft 394 kts 271°
2026-04-24 14:11 50.82490 6.46267 15196 ft 396 kts 271°
2026-04-24 14:11 50.82598 6.37914 16360 ft 403 kts 271°
2026-04-24 14:12 50.82644 6.33649 16939 ft 406 kts 271°
2026-04-24 14:12 50.82689 6.29168 17525 ft 409 kts 270°
2026-04-24 14:12 50.82732 6.24661 18095 ft 412 kts 270°
2026-04-24 14:12 50.82774 6.20180 18633 ft 415 kts 270°
2026-04-24 14:13 50.82813 6.15925 19076 ft 417 kts 270°
2026-04-24 14:13 50.82852 6.11867 19512 ft 419 kts 270°
2026-04-24 14:13 50.82891 6.07521 19977 ft 420 kts 270°
2026-04-24 14:13 50.82930 6.02896 20458 ft 421 kts 270°
2026-04-24 14:14 50.82939 5.98284 20925 ft 423 kts 268°
2026-04-24 14:14 50.82879 5.93638 21358 ft 424 kts 267°
2026-04-24 14:14 50.82667 5.85123 22135 ft 426 kts 266°
2026-04-24 14:15 50.82533 5.80429 22546 ft 428 kts 266°
2026-04-24 14:15 50.82403 5.75721 22953 ft 429 kts 266°
2026-04-24 14:15 50.82282 5.70995 23351 ft 431 kts 266°
2026-04-24 14:15 50.82176 5.66533 23714 ft 432 kts 266°
2026-04-24 14:16 50.82084 5.62460 24012 ft 433 kts 266°
2026-04-24 14:16 50.81979 5.57695 24353 ft 434 kts 266°
2026-04-24 14:16 50.81876 5.52920 24657 ft 436 kts 266°
2026-04-24 14:17 50.81660 5.43664 25201 ft 438 kts 266°
2026-04-24 14:17 50.81559 5.39494 25432 ft 439 kts 266°
2026-04-24 14:17 50.81315 5.29823 25938 ft 442 kts 265°
2026-04-24 14:18 50.81189 5.25002 26175 ft 443 kts 265°
2026-04-24 14:18 50.81068 5.20436 26382 ft 444 kts 265°
2026-04-24 14:18 50.80962 5.16482 26546 ft 445 kts 265°
2026-04-24 14:18 50.80831 5.11595 26740 ft 446 kts 265°
2026-04-24 14:19 50.80769 5.08355 26883 ft 447 kts 268°
2026-04-24 14:19 50.81185 5.02127 27224 ft 449 kts 279°
2026-04-24 14:19 50.81920 4.97854 27465 ft 451 kts 284°
2026-04-24 14:19 50.82652 4.94059 27683 ft 450 kts 284°
2026-04-24 14:20 50.83559 4.89328 27960 ft 449 kts 283°
2026-04-24 14:20 50.84427 4.84772 28227 ft 448 kts 283°
2026-04-24 14:20 50.85317 4.80065 28520 ft 447 kts 283°
2026-04-24 14:20 50.86204 4.75351 28817 ft 447 kts 283°
2026-04-24 14:21 50.86788 4.72236 29012 ft 446 kts 283°
2026-04-24 14:21 50.87392 4.69006 29233 ft 446 kts 283°
2026-04-24 14:21 50.88561 4.62766 29585 ft 446 kts 283°
2026-04-24 14:21 50.89332 4.58653 29826 ft 446 kts 283°
2026-04-24 14:22 50.90360 4.54017 30112 ft 448 kts 290°
2026-04-24 14:22 50.91824 4.49643 30396 ft 451 kts 298°
2026-04-24 14:22 50.94847 4.41833 30857 ft 450 kts 298°
2026-04-24 14:23 50.96478 4.37589 31111 ft 450 kts 297°
2026-04-24 14:23 50.98072 4.33428 31361 ft 449 kts 297°
2026-04-24 14:23 50.99516 4.29649 31576 ft 449 kts 297°
2026-04-24 14:23 51.01129 4.25422 31828 ft 448 kts 297°
2026-04-24 14:24 51.02445 4.21969 32045 ft 447 kts 297°
2026-04-24 14:24 51.03916 4.18111 32279 ft 447 kts 297°
2026-04-24 14:24 51.05522 4.13885 32536 ft 446 kts 297°
2026-04-24 14:24 51.07119 4.09678 32799 ft 446 kts 297°
2026-04-24 14:25 51.08631 4.05690 33025 ft 445 kts 298°
2026-04-24 14:25 51.09947 4.02213 33246 ft 445 kts 297°
2026-04-24 14:25 51.11220 3.98835 33448 ft 444 kts 297°
2026-04-24 14:25 51.12806 3.94620 33711 ft 444 kts 297°
2026-04-24 14:26 51.14388 3.90413 33969 ft 443 kts 297°
2026-04-24 14:26 51.15949 3.86255 34227 ft 442 kts 297°
2026-04-24 14:26 51.17362 3.82485 34433 ft 442 kts 297°
2026-04-24 14:26 51.18934 3.78282 34665 ft 441 kts 298°
2026-04-24 14:27 51.20295 3.74641 34870 ft 441 kts 298°
2026-04-24 14:27 51.21829 3.70539 35098 ft 440 kts 298°
2026-04-24 14:27 51.23216 3.66220 35325 ft 436 kts 289°
2026-04-24 14:27 51.24159 3.61644 35544 ft 433 kts 281°
2026-04-24 14:28 51.24780 3.56960 35752 ft 432 kts 279°
2026-04-24 14:28 51.25359 3.52560 35941 ft 431 kts 280°
2026-04-24 14:28 51.25970 3.47940 36138 ft 431 kts 280°
2026-04-24 14:28 51.26590 3.43264 36337 ft 430 kts 280°
2026-04-24 14:29 51.27209 3.38593 36533 ft 430 kts 280°
2026-04-24 14:29 51.27819 3.33923 36731 ft 429 kts 279°
2026-04-24 14:29 51.28388 3.29520 36924 ft 428 kts 279°
2026-04-24 14:29 51.28984 3.24869 37133 ft 427 kts 279°
2026-04-24 14:30 51.29376 3.21795 37271 ft 426 kts 279°
2026-04-24 14:30 51.30165 3.15607 37553 ft 424 kts 279°
2026-04-24 14:30 51.30727 3.11188 37728 ft 423 kts 279°
2026-04-24 14:30 51.31291 3.06739 37899 ft 423 kts 279°
2026-04-24 14:31 51.31889 3.02018 38050 ft 422 kts 279°
2026-04-24 14:31 51.32468 2.97419 38235 ft 422 kts 279°
2026-04-24 14:31 51.33044 2.92818 38309 ft 423 kts 279°
2026-04-24 14:32 51.34192 2.83582 38311 ft 424 kts 279°
2026-04-24 14:32 51.35337 2.74318 38310 ft 425 kts 279°
2026-04-24 14:33 51.36474 2.65110 38310 ft 425 kts 279°
2026-04-24 14:33 51.37616 2.55833 38312 ft 425 kts 279°
2026-04-24 14:34 51.38755 2.46556 38319 ft 425 kts 279°
2026-04-24 14:34 51.39882 2.37260 38332 ft 425 kts 279°
2026-04-24 14:35 51.40988 2.28005 38336 ft 426 kts 279°
2026-04-24 14:35 51.42106 2.18698 38337 ft 426 kts 279°
2026-04-24 14:36 51.43247 2.09396 38336 ft 425 kts 279°
2026-04-24 14:36 51.44375 2.00084 38336 ft 425 kts 279°
2026-04-24 14:37 51.45481 1.90830 38342 ft 425 kts 279°
2026-04-24 14:37 51.46572 1.81509 38342 ft 425 kts 279°
2026-04-24 14:38 51.47647 1.72183 38344 ft 425 kts 278°
2026-04-24 14:38 51.48712 1.62854 38344 ft 425 kts 278°
2026-04-24 14:39 51.49770 1.53517 38346 ft 425 kts 278°
2026-04-24 14:39 51.50828 1.44178 38345 ft 425 kts 278°
2026-04-24 14:40 51.51874 1.34892 38345 ft 426 kts 278°
2026-04-24 14:40 51.52916 1.25532 38349 ft 426 kts 278°
2026-04-24 14:41 51.53946 1.16179 38353 ft 426 kts 278°
2026-04-24 14:41 51.54970 1.06811 38353 ft 426 kts 278°
2026-04-24 14:42 51.55816 0.99022 38352 ft 425 kts 278°
2026-04-24 14:42 51.56990 0.88140 38345 ft 426 kts 278°
2026-04-24 14:43 51.57999 0.78770 38357 ft 425 kts 278°
2026-04-24 14:43 51.58994 0.69388 38353 ft 425 kts 278°
2026-04-24 14:44 51.59977 0.60088 38349 ft 425 kts 278°
2026-04-24 14:44 51.60963 0.50710 38345 ft 425 kts 278°
2026-04-24 14:45 51.61936 0.41342 38336 ft 425 kts 278°
2026-04-24 14:45 51.62894 0.31953 38317 ft 425 kts 278°
2026-04-24 14:46 51.63858 0.22624 38316 ft 426 kts 281°
2026-04-24 14:46 51.66056 0.13779 38311 ft 430 kts 300°
2026-04-24 14:47 51.69234 0.07578 38311 ft 434 kts 311°
2026-04-24 14:47 51.74186 -0.00542 38350 ft 435 kts 311°
2026-04-24 14:48 51.78420 -0.07528 38351 ft 435 kts 311°
2026-04-24 14:48 51.82622 -0.14474 38369 ft 435 kts 311°
2026-04-24 14:49 51.86852 -0.21478 38328 ft 435 kts 311°
2026-04-24 14:49 51.91072 -0.28500 38329 ft 435 kts 311°
2026-04-24 14:50 51.95284 -0.35534 38316 ft 435 kts 311°
2026-04-24 14:50 51.99495 -0.42582 38318 ft 435 kts 311°
2026-04-24 14:51 52.03676 -0.49587 38325 ft 435 kts 311°
2026-04-24 14:51 52.07878 -0.56646 38338 ft 434 kts 311°
2026-04-24 14:52 52.12065 -0.63725 38325 ft 434 kts 311°
2026-04-24 14:52 52.16245 -0.70806 38323 ft 434 kts 311°
2026-04-24 14:53 52.20395 -0.77844 38328 ft 433 kts 311°
2026-04-24 14:53 52.24640 -0.84813 37855 ft 437 kts 317°
2026-04-24 14:53 52.27135 -0.87693 37054 ft 440 kts 326°
2026-04-24 14:54 52.29760 -0.90258 36259 ft 439 kts 325°
2026-04-24 14:54 52.32378 -0.92830 35377 ft 439 kts 324°
2026-04-24 14:54 52.34987 -0.95414 34536 ft 439 kts 324°
2026-04-24 14:54 52.37595 -0.98013 33492 ft 440 kts 324°
2026-04-24 14:55 52.39328 -0.99746 32800 ft 441 kts 324°
2026-04-24 14:55 52.42826 -1.03253 31438 ft 440 kts 324°
2026-04-24 14:55 52.45398 -1.05838 30367 ft 441 kts 323°
2026-04-24 14:55 52.48024 -1.08480 29085 ft 443 kts 324°
2026-04-24 14:56 52.50653 -1.11123 27951 ft 443 kts 325°
2026-04-24 14:56 52.53290 -1.13774 26740 ft 447 kts 326°
2026-04-24 14:56 52.55954 -1.16454 25537 ft 451 kts 327°
2026-04-24 14:56 52.58639 -1.19161 24381 ft 454 kts 328°
2026-04-24 14:57 52.61349 -1.21898 23135 ft 459 kts 328°
2026-04-24 14:57 52.64069 -1.24643 22127 ft 458 kts 328°
2026-04-24 14:57 52.66767 -1.27372 21267 ft 453 kts 328°
2026-04-24 14:57 52.69402 -1.30047 20432 ft 449 kts 328°
2026-04-24 14:58 52.72067 -1.32760 19572 ft 450 kts 328°
2026-04-24 14:58 52.74723 -1.35472 18770 ft 449 kts 327°
2026-04-24 14:58 52.77375 -1.38183 17844 ft 446 kts 328°
2026-04-24 14:58 52.79988 -1.40851 17045 ft 440 kts 328°
2026-04-24 14:59 52.82615 -1.43346 16627 ft 431 kts 331°
2026-04-24 14:59 52.85252 -1.45646 15956 ft 427 kts 332°
2026-04-24 14:59 52.87897 -1.47829 15217 ft 423 kts 333°
2026-04-24 14:59 52.90522 -1.49945 14504 ft 418 kts 333°
2026-04-24 15:00 52.93089 -1.52028 13784 ft 414 kts 333°
2026-04-24 15:00 52.95656 -1.54150 13091 ft 409 kts 333°
2026-04-24 15:00 52.98173 -1.56268 12429 ft 403 kts 332°
2026-04-24 15:00 53.00609 -1.58344 11855 ft 380 kts 332°
2026-04-24 15:01 53.02878 -1.60288 11369 ft 355 kts 332°
2026-04-24 15:01 53.05003 -1.62111 10953 ft 334 kts 332°
2026-04-24 15:01 53.07046 -1.63867 10591 ft 327 kts 332°
2026-04-24 15:01 53.09050 -1.65589 10237 ft 322 kts 332°
2026-04-24 15:02 53.09693 -1.66141 10109 ft 320 kts 332°
2026-04-24 15:02 53.12949 -1.68939 9448 ft 313 kts 332°
2026-04-24 15:02 53.14855 -1.70577 9171 ft 304 kts 332°
2026-04-24 15:02 53.16713 -1.72173 8906 ft 296 kts 332°
2026-04-24 15:03 53.17911 -1.73205 8746 ft 291 kts 332°
2026-04-24 15:03 53.20274 -1.75246 8413 ft 281 kts 332°
2026-04-24 15:03 53.21991 -1.76727 8154 ft 274 kts 332°
2026-04-24 15:03 53.23671 -1.78179 7887 ft 269 kts 332°
2026-04-24 15:04 53.25286 -1.79576 7649 ft 262 kts 332°
2026-04-24 15:04 53.26887 -1.80962 7401 ft 256 kts 332°
2026-04-24 15:04 53.28444 -1.82311 7157 ft 249 kts 333°
2026-04-24 15:04 53.29969 -1.83634 6915 ft 245 kts 333°
2026-04-24 15:05 53.31477 -1.84943 6663 ft 243 kts 333°
2026-04-24 15:05 53.32977 -1.86243 6406 ft 243 kts 333°
2026-04-24 15:05 53.34471 -1.87537 6148 ft 242 kts 333°
2026-04-24 15:05 53.35961 -1.88830 5897 ft 241 kts 333°
2026-04-24 15:06 53.37446 -1.90116 5640 ft 240 kts 333°
2026-04-24 15:06 53.38905 -1.91380 5390 ft 239 kts 333°
2026-04-24 15:06 53.40378 -1.92657 5134 ft 238 kts 333°
2026-04-24 15:06 53.41833 -1.93922 4899 ft 233 kts 333°
2026-04-24 15:07 53.43258 -1.95164 4629 ft 228 kts 333°
2026-04-24 15:07 53.44651 -1.96380 4368 ft 224 kts 333°
2026-04-24 15:07 53.46024 -1.97587 4126 ft 221 kts 330°
2026-04-24 15:07 53.47094 -1.99348 3863 ft 217 kts 296°
2026-04-24 15:08 53.47331 -2.01770 3688 ft 210 kts 259°
2026-04-24 15:08 53.46711 -2.03887 3577 ft 201 kts 230°
2026-04-24 15:08 53.45838 -2.05710 3362 ft 199 kts 231°
2026-04-24 15:08 53.44994 -2.07483 3073 ft 196 kts 230°
2026-04-24 15:09 53.44148 -2.09251 2796 ft 192 kts 230°
2026-04-24 15:09 53.43325 -2.10968 2524 ft 183 kts 230°
2026-04-24 15:09 53.42558 -2.12568 2316 ft 167 kts 230°
2026-04-24 15:09 53.41867 -2.14011 2092 ft 152 kts 229°
2026-04-24 15:10 53.41220 -2.15356 1883 ft 144 kts 229°
2026-04-24 15:10 53.40601 -2.16644 1698 ft 141 kts 229°
2026-04-24 15:10 53.39990 -2.17914 1504 ft 140 kts 228°
2026-04-24 15:10 53.39380 -2.19181 1320 ft 139 kts 230°
2026-04-24 15:11 53.38773 -2.20443 1136 ft 139 kts 230°
2026-04-24 15:11 53.38176 -2.21682 947 ft 138 kts 229°
2026-04-24 15:11 53.37574 -2.22932 757 ft 138 kts 230°
2026-04-24 15:11 53.36973 -2.24179 577 ft 137 kts 230°
2026-04-24 15:12 53.36375 -2.25420 391 ft 136 kts 229°
2026-04-24 15:12 53.35350 -2.27545 258 ft 68 kts 231°